{"data":{"norad_id":63107,"epoch":"2026-09-21T01:31:05.937888Z","epoch_age_seconds":113588,"freshness":"FRESH","line1":"1 63107U 25039D   26264.06326317  .00143050  00000+0  10996-2 0  9993","line2":"2 63107  43.0008 139.1099 0001261 347.0839  12.9996 15.70832010 90349","mean_motion":15.7083201,"eccentricity":0.0001261,"inclination_deg":43.0008,"raan_deg":139.1099,"arg_perigee_deg":347.0839,"mean_anomaly_deg":12.9996,"bstar":0.0010996,"rev_number":9034,"period_min":91.671164760642,"perigee_km":355.66865859801,"apogee_km":357.36713856343,"semimajor_km":6734.6548985807,"source":"CELESTRAK","updated_at":"2026-09-22T09:00:49.762791Z"}}